User: anonymous   Login
Location: Unspecified
(32.5209°N, 0.0000°E)
Time: 19:10:28
(UTC+00:00)
Language:

CZ-6A DEB - Orbit

View from above orbital plane
View from above orbital plane
View from above satellite
View from above satellite

Ground track
Ground track

The orbit is defined by the following mean orbital elements,

1 54915U          26087.25612421 +.00000000 +00000-0 +46214-3 0 00003
2 54915  98.8454  79.5641 0061347 214.7556 144.9598 14.07575308    07
Epoch (UTC): 28 March 2026 06:08:49
Eccentricity: 0.0061347
inclination: 98.8454°
perigee height: 823 km
apogee height: 912 km
right ascension of ascending node: 79.5641°
argument of perigee: 214.7556°
revolutions per day: 14.07575308
mean anomaly at epoch: 144.9598°

The dashed part of the orbit path shows where the satellite is in the earth's shadow,  

DLR